{"data":{"norad_id":68618,"intl_designator":"2026-073S","name":"STARLINK-37179","alt_names":[],"object_type":"PAYLOAD","status":"ACTIVE","operator":null,"country":"US","launch_date":"2026-04-07","launch_site_code":"AFWTR","launch_vehicle":null,"mission":null,"orbit_class":"UNKNOWN","rcs_meters":null,"size_class":null,"mass_kg":null,"dimensions":null,"purposes":["comms"],"wikipedia_slug":null,"has_3d_model":false,"image_url":null,"decayed_at":null,"tle_current":{"epoch":"2026-09-19T18:58:31.880064Z","epoch_age_seconds":105484,"freshness":"FRESH","line1":"1 68618U 26073S   26262.79064676  .00014071  00000+0  43715-3 0  9995","line2":"2 68618  97.2851 100.8429 0001573  87.3853 272.7570 15.33460893 25635","mean_motion":15.33460893,"eccentricity":0.0001573,"inclination_deg":97.2851,"raan_deg":100.8429,"arg_perigee_deg":87.3853,"mean_anomaly_deg":272.757,"bstar":0.00043715,"rev_number":2563,"period_min":93.90523139999,"perigee_km":464.41938504685,"apogee_km":466.57239195357,"semimajor_km":6843.6328885002,"source":"CELESTRAK","updated_at":"2026-09-20T09:00:43.946297Z"}}}